Starlink 30517

operational
NORAD ID: 57995 Int'l Des: 2023-153 Owner: SPXS Country: US Constellation: starlink
LEOCIRCULAR

About Starlink 30517

Description loading...

Live Position

Loading 3D Globe...

Upcoming Passes

Altitude History

Altitude vs Time

uPlot chart will show altitude changes over time

Two-Line Element Set

1 57995U 23153E 25350.78534172 .00000565 00000-0 56903-4 0 9994
2 57995 43.0031 159.3773 0001188 268.1312 91.9394 15.02536475122406
Epoch: Dec 16, 2025 • Age: 12 hours

Current Status

Altitude 558.7 km
Velocity 7.59 km/s
Sub-Earth Point 18.05°N, 129.79°E
Launch Date Oct 5, 2023
Age 2.2 years
Type internet

Technical Details

Classification Payload
Mass 730.00 kg
Dry Mass 700.00 kg
Total Mass 730.00 kg
Length 0.30 m
Diameter 4.10 m
Span 29.00 m
Shape Box + pan
Manufacturer SPXS
Bus Type Starlink V2M
Phase Status In Orbit
Owner/State SPXS/US

Large Constellations

Loading constellations...